Weather Roundup
Issued by NWS Chicago, IL

Home | Current Version | Previous Version | Graphics & Text | Print | Product List | Glossary On
Versions: 1 2 3 4 5 6 7 8 9 10 11 12 13 14 15 16 17 18 19 20 21 22 23 24 25 26 27 28 29 30 31 32 33 34 35 36 37 38 39 40 41 42 43 44 45 46 47 48 49 50
000
NZUS59 KLOT 301612
HRRLOT

CHICAGO AREA WEATHER ROUNDUP
NATIONAL WEATHER SERVICE CHICAGO/ROMEOVILLE IL
1100 AM CDT SUN AUG 30 2015

NOTE: "FAIR" INDICATES FEW OR NO CLOUDS BELOW 12,000 FEET WITH NO
SIGNIFICANT WEATHER AND/OR OBSTRUCTIONS TO VISIBILITY.

* THESE STATIONS ARE NOT UNDER NWS QUALITY CONTROL. THEY ALSO MAY NOT
  REPORT WEATHER SUCH AS PRECIPITATION OR FOG.

ILZ005-006-012>014-019>023-301700-
NORTHEAST ILLINOIS

CITY           SKY/WX    TMP DP  RH WIND       PRES   REMARKS
OHARE          CLOUDY    70  64  81 NE5       30.08S
MIDWAY         CLOUDY    73  63  70 S3        30.08S
AURORA         CLOUDY    72  63  73 VRB3      30.10R
LANSING*       CLOUDY    70  64  82 NW3       30.09S HAZE
JOLIET*        CLOUDY    72  65  76 N5        30.09S
WAUKEGAN       CLOUDY    67  64  90 NE6       30.08S FOG
DUPAGE AIRPORT CLOUDY    71  60  68 VRB3      30.09R
WHEELING       CLOUDY    68  64  87 N5        30.10S FOG
KANKAKEE*      CLOUDY    72  67  86 CALM      30.09S FOG
MORRIS*        CLOUDY    71  65  81 E5        30.08S
LEWIS AIRPORT* CLOUDY    70  63  77 CALM      30.09S
NORTHERLY IS     N/A     67  64  90 N8          N/A
$$

WIZ051-052-058>065-066-070>072-301700-
SOUTHEAST WISCONSIN

CITY           SKY/WX    TMP DP  RH WIND       PRES   REMARKS
MILWAUKEE      CLOUDY    68  63  84 N3        30.09S
KENOSHA*       CLOUDY    67  64  90 CALM      30.10S FOG
RACINE*        CLOUDY    69  63  81 N5        30.11S
BURLINGTON     CLOUDY    67  61  81 CALM      30.10S
WAUKESHA       CLOUDY    64  61  88 CALM      30.10S
WEST BEND      CLOUDY    68  59  73 CALM      30.10S
$$

INZ001>003-010>013-019-020-301700-
NORTHWEST INDIANA

CITY           SKY/WX    TMP DP  RH WIND       PRES   REMARKS
GARY*          PTSUNNY   72  63  73 CALM      30.09S
MICHIGAN CITY* NOT AVBL
RENSSELAER*    NOT AVBL
VALPARAISO     CLOUDY    74  66  76 NE5       30.09S
$$

LMZ740>746-301700-
SOUTHERN LAKE MICHIGAN

STATION/POSITION TIME  SKY/WX   TEMP WIND        PRES    VSBY
                                AIR  DIR/SP/G
                 (UTC)          (F)  (DEG/KT/KT) (MB)    (MI)
HARRISON CRIB    1500            63  330/ 12/ 14   N/A
BURNHAM HARBOR   1600            68  360/  5/  8   N/A
CALUMET HARBOR   NOT AVBL
BURNS HARBOR     1500            69  330/  3/  4 1019.0S
MICHIGAN CITY    1500            71  270/  5/  5   N/A
$$

ABBREVIATIONS USED IN REMARKS
   TC - TEMPERATURE IN CELSIUS
  WCI - WIND CHILL INDEX
   HX - HEAT INDEX
  VSB - VISIBILITY
$$


USA.gov is the U.S. government's official web portal to all federal, state and local government web resources and services.